EW1390 Weather Reports


Display with metric or nautical units.
time (UTC)temp
F
wind
direction
speed
MPH
gust
MPH
rain 1hr
in
rain 24hr
in
rain mn
in
humidity
%
barometer
mb
20260508140014 47 242 0.0 0.0 0.00 0.01 0.00 94 1009.2
20260508134520 47 242 0.0 0.0 0.00 0.01 0.00 94 1009.1
20260508133012 47 242 0.0 0.0 0.00 0.01 0.00 94 1009.1
20260508131511 47 242 0.0 0.0 0.00 0.01 0.00 94 1009.1
20260508130009 47 242 0.0 0.0 0.00 0.01 0.00 93 1009.0
20260508124507 47 242 0.0 0.0 0.00 0.01 0.00 93 1008.9
20260508123007 47 242 0.0 0.0 0.00 0.01 0.00 93 1008.9
20260508121506 48 242 0.0 0.0 0.00 0.01 0.00 93 1008.8
20260508120003 48 242 0.0 0.0 0.00 0.01 0.00 93 1008.9
20260508114501 48 242 0.0 0.0 0.00 0.01 0.00 93 1008.8
20260508113100 48 242 0.0 0.0 0.00 0.01 0.00 93 1008.8
20260508111558 49 242 0.0 0.0 0.00 0.01 0.00 93 1009.0
20260508110125 49 242 0.0 0.0 0.00 0.01 0.00 93 1008.9
20260508104600 49 242 0.0 0.0 0.00 0.01 0.00 92 1008.8
20260508103052 50 242 0.0 0.0 0.00 0.01 0.00 92 1008.8
20260508101555 50 242 0.0 0.0 0.00 0.01 0.00 92 1008.8
20260508100048 50 242 0.0 0.0 0.00 0.01 0.00 92 1008.9
20260508094553 51 242 0.0 0.0 0.00 0.01 0.00 92 1008.8
20260508093054 51 242 0.0 0.0 0.00 0.01 0.00 92 1008.7
20260508091541 51 242 0.0 0.0 0.00 0.01 0.00 92 1008.6
20260508090057 52 242 0.0 0.0 0.00 0.01 0.00 92 1008.6
20260508084536 52 242 0.0 0.0 0.00 0.01 0.00 91 1008.6
20260508083033 53 242 0.0 0.0 0.00 0.01 0.00 91 1008.6
20260508081532 53 242 0.0 0.0 0.00 0.01 0.00 91 1008.5
20260508080037 53 242 0.0 0.0 0.00 0.01 0.00 91 1008.5
20260508074535 54 242 0.0 0.0 0.00 0.01 0.00 91 1008.6
20260508073026 54 242 0.0 0.0 0.00 0.01 0.00 91 1008.6
20260508071527 55 242 0.0 0.0 0.00 0.01 0.00 90 1008.6
20260508070020 55 242 0.0 0.0 0.00 0.01 0.00 90 1008.7
20260508064521 56 242 0.0 0.0 0.00 0.01 0.01 90 1008.6
20260508063019 56 242 0.0 0.0 0.00 0.01 0.01 90 1008.7
20260508061519 57 242 0.0 0.0 0.00 0.01 0.01 89 1008.7
20260508060020 57 242 0.0 0.0 0.00 0.01 0.01 89 1008.8
20260508054518 58 242 0.0 0.0 0.00 0.01 0.01 88 1009.0
20260508053017 58 242 0.0 0.0 0.00 0.01 0.01 88 1009.0
20260508051516 59 242 0.0 0.0 0.00 0.01 0.01 88 1008.9
20260508050018 60 242 0.0 0.0 0.00 0.01 0.01 87 1008.8
20260508044515 60 242 0.0 1.0 0.00 0.01 0.01 87 1008.8
20260508043015 61 242 0.0 0.0 0.00 0.01 0.01 86 1008.7
20260508041513 62 242 0.0 1.0 0.00 0.01 0.01 84 1008.7
20260508040015 63 242 0.0 1.0 0.00 0.01 0.01 83 1008.5
20260508034516 64 242 0.0 1.0 0.00 0.01 0.01 81 1008.3
20260508033017 65 242 0.0 1.0 0.00 0.01 0.01 79 1008.2
20260508031510 67 242 0.0 0.0 0.00 0.01 0.01 77 1008.1
20260508030010 68 242 0.0 0.0 0.00 0.01 0.01 74 1007.8
20260508024513 70 242 0.0 0.0 0.00 0.01 0.01 70 1007.7
20260508023016 72 242 0.0 1.0 0.00 0.01 0.01 66 1007.7
20260508021507 74 238 0.0 3.0 0.00 0.01 0.01 60 1007.7
20260508020008 75 238 0.0 2.0 0.00 0.01 0.01 54 1007.7
20260508014507 77 331 1.0 5.0 0.00 0.01 0.01 54 1007.7
20260508013006 79 248 1.0 5.0 0.00 0.01 0.01 53 1007.7
20260508011506 80 245 1.0 7.0 0.00 0.01 0.01 55 1007.7
20260508010012 80 241 2.0 9.0 0.00 0.01 0.01 55 1007.7
20260508004511 81 210 0.0 5.0 0.00 0.01 0.01 55 1007.7
20260508003006 81 215 2.0 4.0 0.00 0.01 0.01 53 1007.7
20260508001502 82 225 1.0 6.0 0.00 0.01 0.01 54 1007.7
20260508000002 82 300 1.0 4.0 0.00 0.01 0.01 55 1007.7
20260507234501 82 240 0.0 3.0 0.00 0.01 0.01 54 1007.8
20260507233059 82 244 1.0 5.0 0.00 0.01 0.01 54 1007.9
20260507231559 81 277 1.0 7.0 0.00 0.01 0.01 55 1008.0
20260507230056 82 232 1.0 3.0 0.00 0.01 0.01 54 1008.2
20260507224600 81 242 0.0 6.0 0.00 0.01 0.01 55 1008.4
20260507223051 81 346 1.0 5.0 0.00 0.01 0.01 56 1008.5
20260507221548 81 334 1.0 4.0 0.00 0.01 0.01 55 1008.8
20260507220045 80 217 1.0 7.0 0.00 0.01 0.01 52 1009.0
20260507214543 80 234 0.0 6.0 0.00 0.01 0.01 55 1009.1
20260507213047 79 255 1.0 5.0 0.00 0.01 0.01 55 1009.2
20260507211536 79 254 1.0 3.0 0.00 0.01 0.01 53 1009.5
20260507210100 78 242 2.0 6.0 0.00 0.01 0.01 56 1009.6
20260507204530 78 293 1.0 5.0 0.00 0.01 0.01 57 1009.8
20260507203027 77 355 1.0 4.0 0.00 0.01 0.01 56 1009.9
20260507201525 76 314 1.0 5.0 0.00 0.01 0.01 59 1010.2
20260507200034 76 207 1.0 5.0 0.00 0.01 0.01 60 1010.2
20260507194519 76 223 2.0 7.0 0.00 0.01 0.01 59 1010.3
20260507193024 76 171 0.0 9.0 0.00 0.01 0.01 58 1010.5
20260507191522 76 86 1.0 4.0 0.00 0.01 0.01 59 1010.5
20260507190014 75 144 0.0 3.0 0.00 0.01 0.01 61 1010.7
20260507184505 74 219 0.0 7.0 0.00 0.01 0.01 63 1010.9
20260507183004 73 251 1.0 4.0 0.00 0.01 0.01 62 1010.9
20260507181600 72 218 2.0 5.0 0.00 0.01 0.01 63 1011.0
20260507180058 71 114 1.0 4.0 0.00 0.01 0.01 68 1011.0
20260507174559 70 120 0.0 5.0 0.00 0.01 0.01 72 1011.1
20260507173116 68 140 0.0 5.0 0.00 0.01 0.01 76 1011.1
20260507171546 66 229 0.0 3.0 0.00 0.01 0.01 81 1011.3
20260507170045 64 202 0.0 3.0 0.00 0.01 0.01 87 1011.3
20260507164537 62 234 0.0 2.0 0.01 0.01 0.01 91 1011.4
20260507163036 60 234 0.0 2.0 0.01 0.01 0.01 95 1011.6
20260507161529 59 234 0.0 0.0 0.01 0.01 0.01 96 1011.5
20260507160038 57 234 0.0 0.0 0.01 0.01 0.01 96 1011.6
20260507154520 56 234 0.0 0.0 0.00 0.00 0.00 96 1011.7
20260507153020 54 234 0.0 0.0 0.00 0.00 0.00 96 1011.6
20260507151512 53 234 0.0 0.0 0.00 0.00 0.00 95 1011.7
20260507150012 51 234 0.0 0.0 0.00 0.00 0.00 95 1011.6
20260507144524 50 234 0.0 0.0 0.00 0.00 0.00 95 1011.8
20260507143010 50 234 0.0 0.0 0.00 0.00 0.00 95 1011.8
20260507141509 49 234 0.0 0.0 0.00 0.00 0.00 94 1011.8